User: anonymous   Login
Location: Mentone
(34.5413°N, 85.5351°W)
Time: 04:45:22
(UTC-05:00)
Language:

Cosmos 2026 Rocket - Orbit

View from above orbital plane
View from above orbital plane
View from above satellite
View from above satellite

Ground track
Ground track

The orbit data is extracted from the following two-line orbital elements,

1 20046U 89042B   16179.57664102  .00000097  00000-0  80972-4 0  9996
2 20046  82.9363 207.4522 0041595 344.9726 182.6599 13.78071048360419
Epoch (UTC): 27 June 2016 13:50:21
Eccentricity: 0.0041595
inclination: 82.9363°
perigee height: 940 km
apogee height: 1001 km
right ascension of ascending node: 207.4522°
argument of perigee: 344.9726°
revolutions per day: 13.78071048
mean anomaly at epoch: 182.6599°
orbit number at epoch: 36041

The dashed part of the orbit path shows where the satellite is in the earth's shadow,  

DLR